Weather in Malyye Kalmashi

Russia / Udmurt Republic     56°11′06″N   53°54′11″E
temp.,
°C
wind,
m/s
gust,
m/s
humid.,
%
clouds,
%
prec.,
mm/h
press.,
hPa
HPBL,
m
9 december, thu
thu901:00−3s51292100 0.0 1030392
04:00−4s41193100 0.0 1030310
07:00−5sse41094100 0.0 1030235
10:00−5sse41192100 0.0 1030275
13:00−4sse41189100 0.0 1028335
16:00−5sse41188100 0.0 1027286
19:00−4sse51290100 0.0 1026369
22:00−4s41092100 0.0 1025340
10 december, fri
fri1001:00−4s3890100 0.0 1025255
04:00−4ssw2697100 1.2 1025235
07:00−4sw2397100 1.8 1025150
10:00−8wnw229983 1.9 102721
13:00−7nnw369634 0.0 1028192
16:00−10nnw38945 0.0 1030162
19:00−13n389422 0.0 1033168
22:00−13nne411905 0.0 1034267
11 december, sat
sat1101:00−15nne410925 0.0 1036232
04:00−16nne39945 0.0 1037194
07:00−17nne39935 0.0 1039175
10:00−16n39925 0.0 1040188
13:00−11nne38895 0.0 1040226
16:00−13n36955 0.0 104189
19:00−14n37935 0.0 1042102
22:00−15n23935 0.0 104356
12 december, sun
sun1201:00−16n22945 0.0 104334
04:00−17nnw229620 0.0 104417
07:00−17nw11965 0.0 10449
10:00−17wnw11965 0.0 104616
13:00−12nw118819 0.0 104529
16:00−15wsw119239 0.0 10459
19:00−17wsw11927 0.0 10459
22:00−17sw11925 0.0 10449
13 december, mon
mon1301:00−17ssw11938 0.0 104410
04:00−17ssw22945 0.0 104312
07:00−18sw229556 0.0 104212
10:00−16wsw229264 0.0 104232
13:00−13wsw258977 0.0 1041101
16:00−16sw2294100 0.0 104125
19:00−17sw229530 0.0 104020
22:00−16sw2395100 0.0 104032